M I D A S
Marine Information and Data Acquisition System
Tripno 906 of the Zeeleeuw from 2005-05-27 06:47:20 to 2005-05-27 12:54:50
Back to CruiseResearch ActivitiesStationsMapUnderway DataData graphs

EquipmentUnitsComments
TimeDGPSUTC
LatitudeDGPSDM.mWGS84
LongitudeDGPSDM.mWGS84
SpeedMeteo Stationm/sRelative wind speed
DirectionMeteo StationdegRelative wind direction
TemperatureMeteo Stationdeg CelciusAir temperature
PressureMeteo StationPaAtmospheric pressure
HumidityMeteo Station%Relative humidity
Missing or incorrect values are displayed as -999
Metereological data collected by the RV Zeeleeuw from 2005-05-27 06:38:38 to 2005-05-27 13:02:10
                                                                                    Next 1000 lines
Time Latitude Longitude Speed Direction Temperature Pressure Humidity
2005-05-27 06:38:48 51°13.596 2°56.108 3.4 359 18.8 101520 62
2005-05-27 06:38:53 51°13.596 2°56.108 3.4 17 18.8 101520 62
2005-05-27 06:38:58 51°13.596 2°56.108 3.6 6 18.8 101520 62
2005-05-27 06:39:02 51°13.596 2°56.108 3.1 -999 18.8 101510 61
2005-05-27 06:39:08 51°13.596 2°56.107 2.6 5 18.8 101510 61
2005-05-27 06:39:13 51°13.596 2°56.106 2.1 357 18.8 101520 61
2005-05-27 06:39:18 51°13.596 2°56.103 2.1 20 18.8 101520 61
2005-05-27 06:39:22 51°13.597 2°56.1 1.9 17 18.8 101510 61
2005-05-27 06:39:28 51°13.598 2°56.096 2 359 18.8 101510 61
2005-05-27 06:39:32 51°13.599 2°56.091 2.1 341 18.7 101510 61
2005-05-27 06:39:38 51°13.601 2°56.085 2.3 339 18.7 101510 61
2005-05-27 06:39:42 51°13.603 2°56.079 2.2 338 18.8 101520 62
2005-05-27 06:39:48 51°13.605 2°56.071 2 341 18.8 101520 62
2005-05-27 06:39:52 51°13.606 2°56.066 1.8 357 18.7 101510 62
2005-05-27 06:39:58 51°13.608 2°56.058 1.6 15 18.7 101510 62
2005-05-27 06:40:03 51°13.61 2°56.049 1.9 358 18.7 101520 62
2005-05-27 06:40:08 51°13.612 2°56.042 1.5 353 18.7 101520 62
2005-05-27 06:40:12 51°13.613 2°56.035 1.1 334 18.7 101520 62
2005-05-27 06:40:18 51°13.616 2°56.025 1.2 336 18.7 101520 62
2005-05-27 06:40:23 51°13.617 2°56.016 1.4 351 18.7 101520 62
2005-05-27 06:40:28 51°13.62 2°56.006 1.4 347 18.7 101520 62
2005-05-27 06:40:32 51°13.622 2°55.999 1.6 352 18.8 101520 62
2005-05-27 06:40:38 51°13.625 2°55.988 1.7 348 18.8 101520 62
2005-05-27 06:40:42 51°13.627 2°55.981 1.6 339 18.7 101510 62
2005-05-27 06:40:48 51°13.631 2°55.969 1.7 338 18.7 101510 62
2005-05-27 06:40:53 51°13.633 2°55.96 1.3 323 18.8 101520 62
2005-05-27 06:40:58 51°13.637 2°55.95 1.2 311 18.8 101520 62
2005-05-27 06:41:03 51°13.641 2°55.94 1.2 314 18.8 101520 62
2005-05-27 06:41:08 51°13.645 2°55.929 1.4 318 18.8 101520 62
2005-05-27 06:41:12 51°13.648 2°55.922 1.5 301 18.8 101520 62
2005-05-27 06:41:18 51°13.653 2°55.91 1.4 273 18.8 101520 62
2005-05-27 06:41:22 51°13.657 2°55.902 1.1 304 18.8 101520 62
2005-05-27 06:41:28 51°13.662 2°55.891 1.4 312 18.8 101520 62
2005-05-27 06:41:33 51°13.667 2°55.881 1.6 313 18.8 101520 62
2005-05-27 06:41:38 51°13.671 2°55.871 1.4 305 18.8 101520 62
2005-05-27 06:41:42 51°13.675 2°55.863 1.2 302 18.8 101520 62
2005-05-27 06:41:48 51°13.681 2°55.851 1.2 298 18.8 101520 62
2005-05-27 06:41:53 51°13.686 2°55.842 1 288 18.9 101520 62
2005-05-27 06:41:58 51°13.691 2°55.832 0.8 288 18.9 101520 62
2005-05-27 06:42:03 51°13.696 2°55.821 1.5 273 18.9 101510 62
2005-05-27 06:42:08 51°13.702 2°55.81 1.5 274 18.9 101510 62
2005-05-27 06:42:12 51°13.706 2°55.802 1.1 284 18.9 101510 62
2005-05-27 06:42:18 51°13.712 2°55.791 1.5 286 18.9 101510 62
2005-05-27 06:42:23 51°13.718 2°55.78 1.4 284 18.9 101510 62
2005-05-27 06:42:28 51°13.723 2°55.77 1.2 296 18.9 101510 62
2005-05-27 06:42:32 51°13.728 2°55.762 1 299 19 101510 62
2005-05-27 06:42:38 51°13.734 2°55.751 0.9 295 19 101510 62
2005-05-27 06:42:43 51°13.741 2°55.74 0.4 296 19 101520 62
2005-05-27 06:42:48 51°13.747 2°55.731 0.6 267 19 101520 62
2005-05-27 06:42:53 51°13.753 2°55.723 0.9 245 19 101510 63
2005-05-27 06:42:58 51°13.76 2°55.714 1.3 222 19 101510 63
2005-05-27 06:43:03 51°13.767 2°55.705 1.6 226 19.1 101510 63
2005-05-27 06:43:08 51°13.775 2°55.697 1.3 242 19.1 101510 63
2005-05-27 06:43:13 51°13.781 2°55.691 1.7 275 19.1 101510 63
2005-05-27 06:43:18 51°13.789 2°55.684 2.2 285 19.1 101510 63
2005-05-27 06:43:23 51°13.795 2°55.68 2.6 281 19.1 101510 62
2005-05-27 06:43:28 51°13.801 2°55.676 2.7 295 19.1 101510 62
2005-05-27 06:43:32 51°13.805 2°55.673 3.1 311 19.1 101510 62
2005-05-27 06:43:38 51°13.808 2°55.671 2.8 316 19.1 101510 62
2005-05-27 06:43:42 51°13.81 2°55.67 2.9 319 19.2 101510 62
2005-05-27 06:43:47 51°13.813 2°55.668 2.4 322 19.2 101510 62
2005-05-27 06:43:52 51°13.816 2°55.667 1.9 322 19.2 101510 61
2005-05-27 06:43:58 51°13.82 2°55.665 1.8 43 19.2 101510 61
2005-05-27 06:44:03 51°13.822 2°55.663 1.8 317 19.2 101500 61
2005-05-27 06:44:08 51°13.824 2°55.661 1.5 228 19.2 101500 61
2005-05-27 06:44:12 51°13.827 2°55.659 0.8 309 19.2 101510 61
2005-05-27 06:44:18 51°13.831 2°55.657 1 44 19.2 101510 61
2005-05-27 06:44:23 51°13.834 2°55.655 2.3 293 19.2 101510 61
2005-05-27 06:44:28 51°13.838 2°55.652 1.4 240 19.2 101510 61
2005-05-27 06:44:32 51°13.842 2°55.65 0.6 235 19.3 101500 61
2005-05-27 06:44:38 51°13.847 2°55.647 0.8 275 19.3 101500 61
2005-05-27 06:44:43 51°13.853 2°55.644 1.4 316 19.3 101500 61
2005-05-27 06:44:48 51°13.858 2°55.642 1.3 310 19.3 101500 61
2005-05-27 06:44:53 51°13.863 2°55.64 1.5 252 19.3 101500 61
2005-05-27 06:44:58 51°13.867 2°55.637 1.5 274 19.3 101500 61
2005-05-27 06:45:03 51°13.873 2°55.635 2.3 255 19.3 101500 61
2005-05-27 06:45:08 51°13.88 2°55.632 3.7 282 19.3 101500 61
2005-05-27 06:45:13 51°13.886 2°55.631 4 248 19.3 101510 61
2005-05-27 06:45:18 51°13.893 2°55.631 4.3 231 19.3 101510 61
2005-05-27 06:45:22 51°13.898 2°55.63 2.8 265 19.4 101510 61
2005-05-27 06:45:28 51°13.906 2°55.629 2.4 259 19.4 101510 61
2005-05-27 06:45:32 51°13.912 2°55.629 2.5 251 19.4 101510 61
2005-05-27 06:45:38 51°13.92 2°55.631 2.5 246 19.4 101510 61
2005-05-27 06:45:42 51°13.925 2°55.632 2.6 258 19.4 101500 60
2005-05-27 06:45:48 51°13.931 2°55.632 3.5 260 19.4 101500 60
2005-05-27 06:45:53 51°13.935 2°55.633 3.7 262 19.4 101500 60
2005-05-27 06:45:58 51°13.937 2°55.633 4.6 263 19.4 101500 60
2005-05-27 06:46:03 51°13.938 2°55.633 4.7 274 19.4 101500 60
2005-05-27 06:46:08 51°13.938 2°55.631 4.4 276 19.4 101500 60
2005-05-27 06:46:12 51°13.938 2°55.629 4.8 275 19.4 101500 60
2005-05-27 06:46:18 51°13.936 2°55.626 3.2 267 19.4 101500 60
2005-05-27 06:46:23 51°13.935 2°55.622 4 263 19.4 101500 61
2005-05-27 06:46:28 51°13.932 2°55.616 3.1 261 19.4 101500 61
2005-05-27 06:46:32 51°13.931 2°55.609 2.2 258 19.4 101500 61
2005-05-27 06:46:37 51°13.93 2°55.602 2.1 265 19.4 101500 61
2005-05-27 06:46:43 51°13.929 2°55.593 2.5 254 19.4 101500 61
2005-05-27 06:46:48 51°13.928 2°55.587 2.3 253 19.4 101500 61
2005-05-27 06:46:52 51°13.928 2°55.583 3 215 19.4 101500 61
2005-05-27 06:46:58 51°13.928 2°55.58 2.1 246 19.4 101500 61
2005-05-27 06:47:02 51°13.928 2°55.579 2.5 220 19.3 101500 61
2005-05-27 06:47:08 51°13.928 2°55.58 2.8 223 19.3 101500 61
2005-05-27 06:47:12 51°13.928 2°55.582 2.5 215 19.3 101500 61
2005-05-27 06:47:18 51°13.928 2°55.586 3.4 215 19.3 101500 61
2005-05-27 06:47:22 51°13.928 2°55.59 4.1 205 19.3 101500 61
2005-05-27 06:47:28 51°13.928 2°55.593 3.5 231 19.3 101500 61
2005-05-27 06:47:32 51°13.928 2°55.594 2.7 209 19.3 101500 61
2005-05-27 06:47:38 51°13.928 2°55.594 2.7 225 19.3 101500 61
2005-05-27 06:47:42 51°13.928 2°55.592 2.6 229 19.2 101500 61
2005-05-27 06:47:48 51°13.93 2°55.587 2.2 219 19.2 101500 61
2005-05-27 06:47:53 51°13.932 2°55.583 1.3 213 19.2 101500 61
2005-05-27 06:47:58 51°13.935 2°55.577 0.9 211 19.2 101500 61
2005-05-27 06:48:03 51°13.939 2°55.57 0.8 148 19.2 101500 61
2005-05-27 06:48:08 51°13.944 2°55.563 1.4 101 19.2 101500 61
2005-05-27 06:48:13 51°13.949 2°55.556 1.6 125 19.2 101500 61
2005-05-27 06:48:18 51°13.954 2°55.55 1.4 100 19.2 101500 61
2005-05-27 06:48:22 51°13.96 2°55.544 2.4 109 19.2 101500 61
2005-05-27 06:48:28 51°13.969 2°55.535 2.5 110 19.2 101500 61
2005-05-27 06:48:33 51°13.977 2°55.527 2.6 105 19.2 101500 61
2005-05-27 06:48:38 51°13.986 2°55.519 2.2 100 19.2 101500 61
2005-05-27 06:48:43 51°13.995 2°55.511 2.7 88 19.2 101500 61
2005-05-27 06:48:47 51°14.003 2°55.503 2.8 96 19.2 101500 61
2005-05-27 06:48:53 51°14.015 2°55.494 2.4 101 19.2 101500 61
2005-05-27 06:48:57 51°14.024 2°55.487 2.6 109 19.2 101500 61
2005-05-27 06:49:02 51°14.034 2°55.479 2.2 93 19.2 101500 61
2005-05-27 06:49:08 51°14.046 2°55.47 2.3 86 19.2 101500 61
2005-05-27 06:49:12 51°14.056 2°55.462 1.7 80 19.2 101500 61
2005-05-27 06:49:17 51°14.067 2°55.453 2.1 73 19.2 101500 61
2005-05-27 06:49:22 51°14.077 2°55.446 2.4 62 19.2 101500 61
2005-05-27 06:49:28 51°14.092 2°55.436 3 47 19.2 101500 61
2005-05-27 06:49:32 51°14.101 2°55.43 2.9 70 19.1 101500 62
2005-05-27 06:49:38 51°14.115 2°55.421 3.1 80 19.1 101500 62
2005-05-27 06:49:42 51°14.124 2°55.415 3.4 73 19.1 101490 62
2005-05-27 06:49:48 51°14.139 2°55.405 3.6 86 19.1 101490 62
2005-05-27 06:49:52 51°14.15 2°55.397 3 87 19.1 101490 62
2005-05-27 06:49:58 51°14.162 2°55.387 2.4 104 19.1 101490 62
2005-05-27 06:50:02 51°14.172 2°55.38 2.2 69 19.1 101490 62
2005-05-27 06:50:07 51°14.185 2°55.368 2.2 78 19.1 101490 62
2005-05-27 06:50:12 51°14.196 2°55.358 1.1 65 19 101490 62
2005-05-27 06:50:18 51°14.209 2°55.346 1 70 19 101490 62
2005-05-27 06:50:22 51°14.219 2°55.335 2.1 50 19 101490 63
2005-05-27 06:50:28 51°14.232 2°55.321 2 47 19 101490 63
2005-05-27 06:50:32 51°14.241 2°55.309 1.6 40 19 101490 63
2005-05-27 06:50:38 51°14.253 2°55.294 2.1 37 19 101490 63
2005-05-27 06:50:43 51°14.263 2°55.28 2.1 31 19 101490 63
2005-05-27 06:50:48 51°14.274 2°55.264 2.4 41 19 101490 63
2005-05-27 06:50:52 51°14.283 2°55.25 2.7 25 18.9 101490 63
2005-05-27 06:50:58 51°14.293 2°55.232 2.3 21 18.9 101490 63
2005-05-27 06:51:03 51°14.302 2°55.214 1.9 35 18.9 101490 64
2005-05-27 06:51:08 51°14.312 2°55.196 1.5 51 18.9 101490 64
2005-05-27 06:51:12 51°14.319 2°55.18 1.7 37 18.9 101490 64
2005-05-27 06:51:17 51°14.328 2°55.162 2 39 18.9 101490 64
2005-05-27 06:51:23 51°14.338 2°55.141 1.5 46 18.9 101490 64
2005-05-27 06:51:28 51°14.348 2°55.122 1.7 44 18.9 101490 64
2005-05-27 06:51:32 51°14.356 2°55.105 1.5 33 18.9 101490 65
2005-05-27 06:51:38 51°14.366 2°55.083 1.5 36 18.9 101490 65
2005-05-27 06:51:42 51°14.373 2°55.065 1.4 25 18.8 101490 64
2005-05-27 06:51:48 51°14.382 2°55.041 1.4 34 18.8 101490 64
2005-05-27 06:51:53 51°14.39 2°55.02 1.3 23 18.8 101490 64
2005-05-27 06:51:57 51°14.396 2°54.999 1.3 17 18.8 101490 64
2005-05-27 06:52:02 51°14.402 2°54.979 1.5 353 18.8 101490 64
2005-05-27 06:52:08 51°14.409 2°54.951 2.1 350 18.8 101490 64
2005-05-27 06:52:12 51°14.414 2°54.93 2.1 348 18.8 101490 64
2005-05-27 06:52:18 51°14.42 2°54.904 1.7 349 18.8 101490 64
2005-05-27 06:52:22 51°14.424 2°54.885 2 339 18.8 101500 65
2005-05-27 06:52:28 51°14.43 2°54.856 2.1 347 18.8 101500 65
2005-05-27 06:52:32 51°14.434 2°54.835 2 347 18.8 101490 65
2005-05-27 06:52:38 51°14.439 2°54.808 1.8 341 18.8 101490 65
2005-05-27 06:52:42 51°14.443 2°54.789 2.2 347 18.7 101490 65
2005-05-27 06:52:48 51°14.448 2°54.758 2.4 345 18.7 101490 65
2005-05-27 06:52:52 51°14.451 2°54.734 2.6 336 18.7 101490 65
2005-05-27 06:52:58 51°14.452 2°54.705 2.6 334 18.7 101490 65
2005-05-27 06:53:03 51°14.453 2°54.678 2.7 336 18.8 101490 65
2005-05-27 06:53:08 51°14.454 2°54.65 3.3 333 18.8 101490 65
2005-05-27 06:53:12 51°14.455 2°54.625 3.6 342 18.8 101490 65
2005-05-27 06:53:18 51°14.455 2°54.593 3.5 333 18.8 101490 65
2005-05-27 06:53:22 51°14.456 2°54.565 3.4 319 18.7 101490 65
2005-05-27 06:53:28 51°14.456 2°54.532 3.6 328 18.7 101490 65
2005-05-27 06:53:32 51°14.456 2°54.504 3.9 330 18.7 101490 65
2005-05-27 06:53:38 51°14.455 2°54.47 4.1 319 18.7 101490 65
2005-05-27 06:53:43 51°14.454 2°54.438 3.9 321 18.7 101490 65
2005-05-27 06:53:48 51°14.452 2°54.407 3.9 322 18.7 101490 65
2005-05-27 06:53:52 51°14.45 2°54.378 3.9 318 18.7 101490 65
2005-05-27 06:53:58 51°14.447 2°54.344 4.1 323 18.7 101490 65
2005-05-27 06:54:02 51°14.443 2°54.318 5.2 322 18.7 101490 64
2005-05-27 06:54:08 51°14.438 2°54.281 4.2 320 18.7 101490 64
2005-05-27 06:54:12 51°14.434 2°54.252 4.7 328 18.7 101490 64
2005-05-27 06:54:18 51°14.428 2°54.218 4.6 324 18.7 101490 64
2005-05-27 06:54:22 51°14.424 2°54.193 4.9 315 18.7 101490 64
2005-05-27 06:54:28 51°14.415 2°54.153 5.2 315 18.7 101490 64
2005-05-27 06:54:33 51°14.409 2°54.126 5.3 329 18.8 101480 64
2005-05-27 06:54:38 51°14.402 2°54.095 5.6 323 18.8 101480 64
2005-05-27 06:54:42 51°14.396 2°54.07 6.3 318 18.7 101480 64
2005-05-27 06:54:48 51°14.386 2°54.033 5.9 320 18.7 101480 64
2005-05-27 06:54:52 51°14.379 2°54.006 6.9 330 18.8 101480 63
2005-05-27 06:54:56 51°14.372 2°53.984 6.7 338 18.8 101480 63
2005-05-27 06:55:03 51°14.36 2°53.946 7.4 325 18.7 101480 63
2005-05-27 06:55:07 51°14.352 2°53.92 6.9 323 18.7 101480 63
2005-05-27 06:55:12 51°14.342 2°53.89 7.4 323 18.8 101480 63
2005-05-27 06:55:18 51°14.332 2°53.858 7.9 229 18.8 101480 63
2005-05-27 06:55:22 51°14.322 2°53.832 7.1 321 18.8 101480 63
2005-05-27 06:55:28 51°14.311 2°53.802 6.8 319 18.8 101480 63
2005-05-27 06:55:32 51°14.301 2°53.777 7.3 323 18.8 101480 63
2005-05-27 06:55:38 51°14.29 2°53.746 6.6 322 18.8 101480 63
2005-05-27 06:55:42 51°14.281 2°53.723 6.2 331 18.8 101470 63
2005-05-27 06:55:48 51°14.266 2°53.687 6.4 336 18.8 101470 63
2005-05-27 06:55:52 51°14.257 2°53.665 6.8 335 18.8 101480 63
2005-05-27 06:55:58 51°14.245 2°53.635 6.1 327 18.8 101480 63
2005-05-27 06:56:03 51°14.235 2°53.607 7.1 339 18.8 101470 62
2005-05-27 06:56:08 51°14.224 2°53.58 7 333 18.8 101470 62
2005-05-27 06:56:12 51°14.214 2°53.555 6.6 333 18.9 101480 62
2005-05-27 06:56:16 51°14.206 2°53.532 6.3 334 18.9 101480 62
2005-05-27 06:56:23 51°14.193 2°53.496 6.7 323 18.9 101480 62
2005-05-27 06:56:28 51°14.182 2°53.468 6.6 321 18.9 101480 62
2005-05-27 06:56:32 51°14.173 2°53.444 6.3 321 18.9 101480 62
2005-05-27 06:56:38 51°14.161 2°53.414 6.6 326 18.9 101480 62
2005-05-27 06:56:42 51°14.153 2°53.392 6.7 322 18.9 101480 62
2005-05-27 06:56:48 51°14.14 2°53.358 7 329 18.9 101480 62
2005-05-27 06:56:52 51°14.13 2°53.333 6.4 326 18.9 101480 62
2005-05-27 06:56:58 51°14.118 2°53.302 6.7 328 18.9 101480 62
2005-05-27 06:57:02 51°14.11 2°53.279 6.5 321 18.9 101480 62
2005-05-27 06:57:07 51°14.098 2°53.249 7.2 331 18.9 101480 62
2005-05-27 06:57:12 51°14.088 2°53.221 6.7 327 18.9 101480 62
2005-05-27 06:57:18 51°14.076 2°53.19 6.5 334 18.9 101480 62
2005-05-27 06:57:22 51°14.067 2°53.165 6.5 334 18.9 101480 62
2005-05-27 06:57:28 51°14.055 2°53.134 7 328 18.9 101480 62
2005-05-27 06:57:33 51°14.045 2°53.106 7.2 331 18.9 101480 62
2005-05-27 06:57:38 51°14.034 2°53.078 7.2 332 18.9 101480 62
2005-05-27 06:57:42 51°14.026 2°53.057 7.2 328 18.9 101480 62
2005-05-27 06:57:48 51°14.013 2°53.023 6.7 329 18.9 101480 62
2005-05-27 06:57:52 51°14.003 2°52.998 6.8 331 18.9 101480 62
2005-05-27 06:57:58 51°13.991 2°52.968 7.1 326 18.9 101480 62
2005-05-27 06:58:03 51°13.98 2°52.94 7.4 333 18.9 101480 62
2005-05-27 06:58:08 51°13.97 2°52.913 7.5 331 18.9 101480 62
2005-05-27 06:58:12 51°13.96 2°52.887 7.6 337 18.9 101480 62
2005-05-27 06:58:18 51°13.948 2°52.857 6.9 328 18.9 101480 62
2005-05-27 06:58:23 51°13.938 2°52.83 7.1 326 18.9 101480 62
2005-05-27 06:58:28 51°13.927 2°52.802 8.4 331 18.9 101480 62
2005-05-27 06:58:33 51°13.917 2°52.774 7.3 319 19 101480 62
2005-05-27 06:58:38 51°13.906 2°52.746 6.9 321 19 101480 62
2005-05-27 06:58:42 51°13.897 2°52.724 6.2 324 19 101480 62
2005-05-27 06:58:48 51°13.884 2°52.691 6.1 319 19 101480 62
2005-05-27 06:58:52 51°13.875 2°52.666 6.3 325 19 101480 62
2005-05-27 06:58:57 51°13.866 2°52.641 6.6 330 19 101480 62
2005-05-27 06:59:02 51°13.854 2°52.61 7.9 321 19 101470 62
2005-05-27 06:59:07 51°13.843 2°52.581 7.2 322 19 101470 62
2005-05-27 06:59:12 51°13.833 2°52.553 7.2 332 19 101480 62
2005-05-27 06:59:18 51°13.821 2°52.522 6.8 330 19 101480 62
2005-05-27 06:59:22 51°13.813 2°52.5 6.5 329 19 101480 63
2005-05-27 06:59:27 51°13.801 2°52.47 7.5 336 19 101480 63
2005-05-27 06:59:32 51°13.79 2°52.443 7.1 342 19 101480 63
2005-05-27 06:59:38 51°13.779 2°52.412 7.1 340 19 101480 63
2005-05-27 06:59:42 51°13.77 2°52.39 6.2 341 19 101480 63
2005-05-27 06:59:48 51°13.758 2°52.357 7.1 338 19 101480 63
2005-05-27 06:59:52 51°13.748 2°52.332 6.7 337 19 101480 62
2005-05-27 06:59:56 51°13.74 2°52.31 7.3 325 19 101480 62
2005-05-27 07:00:03 51°13.726 2°52.273 6 329 19 101480 62
2005-05-27 07:00:08 51°13.716 2°52.245 6.1 331 19 101480 62
2005-05-27 07:00:12 51°13.706 2°52.219 5.6 344 19 101480 62
2005-05-27 07:00:18 51°13.695 2°52.189 5.9 339 19 101480 62
2005-05-27 07:00:22 51°13.687 2°52.166 6.8 335 19 101480 62
2005-05-27 07:00:28 51°13.674 2°52.133 7.1 327 19 101480 62
2005-05-27 07:00:33 51°13.664 2°52.105 6.9 332 19 101480 62
2005-05-27 07:00:37 51°13.654 2°52.08 6.5 341 19 101480 62
2005-05-27 07:00:43 51°13.643 2°52.05 6.7 338 19 101480 62
2005-05-27 07:00:48 51°13.633 2°52.022 6.2 340 19 101480 62
2005-05-27 07:00:52 51°13.623 2°51.996 6.8 340 19 101480 62
2005-05-27 07:00:58 51°13.612 2°51.965 7.1 348 19 101480 62
2005-05-27 07:01:02 51°13.604 2°51.941 6.2 348 19 101480 62
2005-05-27 07:01:08 51°13.592 2°51.907 6.5 350 19 101480 62
2005-05-27 07:01:12 51°13.583 2°51.882 6.4 342 19 101480 62
2005-05-27 07:01:18 51°13.572 2°51.852 6.9 342 19 101480 62
2005-05-27 07:01:22 51°13.563 2°51.83 6.8 330 19 101480 62
2005-05-27 07:01:28 51°13.551 2°51.797 6.5 327 19 101480 62
2005-05-27 07:01:32 51°13.542 2°51.772 6.9 326 19 101480 63
2005-05-27 07:01:38 51°13.53 2°51.741 5.6 327 19 101480 63
2005-05-27 07:01:43 51°13.52 2°51.713 6 324 19 101480 63
2005-05-27 07:01:48 51°13.51 2°51.685 6 329 19 101480 63
2005-05-27 07:01:53 51°13.5 2°51.657 6.6 336 19 101480 63
2005-05-27 07:01:58 51°13.489 2°51.63 6.4 339 19 101480 63
2005-05-27 07:02:02 51°13.48 2°51.605 6.8 335 19 101480 63
2005-05-27 07:02:08 51°13.469 2°51.574 7.1 336 19 101480 63
2005-05-27 07:02:12 51°13.46 2°51.549 6.6 334 19 101480 63
2005-05-27 07:02:18 51°13.448 2°51.519 6.7 335 19 101480 63
2005-05-27 07:02:22 51°13.44 2°51.496 6.7 337 19 101480 63
2005-05-27 07:02:28 51°13.427 2°51.463 6.5 343 19 101480 63
2005-05-27 07:02:32 51°13.418 2°51.438 6.3 340 19 101480 63
2005-05-27 07:02:38 51°13.407 2°51.407 6.7 342 19 101480 63
2005-05-27 07:02:42 51°13.398 2°51.384 6.6 342 19 101480 63
2005-05-27 07:02:48 51°13.386 2°51.351 6.9 334 19 101480 63
2005-05-27 07:02:52 51°13.377 2°51.326 7.8 326 19 101480 63
2005-05-27 07:02:56 51°13.369 2°51.303 7.5 324 19 101480 63
2005-05-27 07:03:02 51°13.357 2°51.27 7.1 333 19 101480 63
2005-05-27 07:03:08 51°13.345 2°51.239 6.9 331 19 101480 63
2005-05-27 07:03:13 51°13.335 2°51.211 6.6 340 18.9 101470 63
2005-05-27 07:03:18 51°13.325 2°51.184 6.3 341 18.9 101470 63
2005-05-27 07:03:22 51°13.315 2°51.158 6.7 341 18.9 101470 63
2005-05-27 07:03:28 51°13.304 2°51.128 6.6 341 18.9 101470 63
2005-05-27 07:03:32 51°13.295 2°51.103 6.6 335 18.9 101470 63
2005-05-27 07:03:38 51°13.283 2°51.072 6.5 332 18.9 101470 63
2005-05-27 07:03:42 51°13.275 2°51.05 6.4 331 18.9 101480 63
2005-05-27 07:03:48 51°13.263 2°51.016 6 327 18.9 101480 63
2005-05-27 07:03:52 51°13.254 2°50.991 6.6 338 18.9 101470 63
2005-05-27 07:03:58 51°13.242 2°50.961 6.6 -999 18.9 101470 63
2005-05-27 07:04:02 51°13.233 2°50.935 6.4 335 18.9 101470 63
2005-05-27 07:04:08 51°13.222 2°50.904 6.6 336 18.9 101470 63
2005-05-27 07:04:12 51°13.213 2°50.878 6.8 331 18.9 101470 63
2005-05-27 07:04:18 51°13.202 2°50.846 7 330 18.9 101470 63
2005-05-27 07:04:22 51°13.194 2°50.824 7.1 329 18.9 101480 63
2005-05-27 07:04:27 51°13.182 2°50.793 6.7 328 18.9 101480 63
2005-05-27 07:04:32 51°13.172 2°50.766 7 332 18.9 101470 63
2005-05-27 07:04:36 51°13.164 2°50.743 6.7 324 18.9 101470 63
2005-05-27 07:04:43 51°13.151 2°50.707 6 333 18.9 101470 64
2005-05-27 07:04:48 51°13.141 2°50.679 6.3 324 18.9 101470 64
2005-05-27 07:04:52 51°13.131 2°50.655 6.4 330 18.9 101470 64
2005-05-27 07:04:58 51°13.12 2°50.624 6.3 336 18.9 101470 64
2005-05-27 07:05:02 51°13.111 2°50.599 6.5 334 18.8 101470 64
2005-05-27 07:05:08 51°13.1 2°50.569 6.2 330 18.8 101470 64
2005-05-27 07:05:12 51°13.091 2°50.544 6.6 331 18.8 101470 64
2005-05-27 07:05:18 51°13.079 2°50.513 6.6 329 18.8 101470 64
2005-05-27 07:05:22 51°13.071 2°50.491 6.3 327 18.8 101470 64
2005-05-27 07:05:28 51°13.058 2°50.457 6.5 330 18.8 101470 64
2005-05-27 07:05:32 51°13.049 2°50.432 6.3 330 18.8 101470 64
2005-05-27 07:05:38 51°13.038 2°50.401 6.8 329 18.8 101470 64
2005-05-27 07:05:42 51°13.029 2°50.379 6.5 327 18.8 101470 64
2005-05-27 07:05:48 51°13.017 2°50.345 6.3 322 18.8 101470 64
2005-05-27 07:05:52 51°13.008 2°50.32 6.2 326 18.8 101470 64
2005-05-27 07:05:58 51°12.997 2°50.289 6 328 18.8 101470 64
2005-05-27 07:06:03 51°12.986 2°50.262 5.9 331 18.8 101470 64
2005-05-27 07:06:07 51°12.977 2°50.237 6 329 18.8 101470 64
2005-05-27 07:06:12 51°12.966 2°50.21 6.3 322 18.7 101460 64
2005-05-27 07:06:18 51°12.955 2°50.18 6.3 324 18.7 101460 64
2005-05-27 07:06:22 51°12.947 2°50.157 6.1 328 18.8 101470 64
2005-05-27 07:06:28 51°12.934 2°50.122 6.3 329 18.8 101470 64
2005-05-27 07:06:32 51°12.925 2°50.097 6.2 332 18.8 101470 64
2005-05-27 07:06:38 51°12.914 2°50.066 6 334 18.8 101470 64
2005-05-27 07:06:42 51°12.906 2°50.043 6.3 330 18.7 101470 64
2005-05-27 07:06:48 51°12.894 2°50.01 6.2 329 18.7 101470 64
2005-05-27 07:06:52 51°12.884 2°49.985 6.7 328 18.7 101470 64
2005-05-27 07:06:58 51°12.873 2°49.954 6.9 328 18.7 101470 64
2005-05-27 07:07:02 51°12.865 2°49.932 6 331 18.7 101470 64
2005-05-27 07:07:08 51°12.853 2°49.898 6.2 333 18.7 101470 64
2005-05-27 07:07:12 51°12.844 2°49.873 6.2 333 18.7 101470 64
2005-05-27 07:07:17 51°12.834 2°49.845 6.2 335 18.7 101470 64
2005-05-27 07:07:22 51°12.825 2°49.82 6.6 321 18.7 101470 65
2005-05-27 07:07:27 51°12.814 2°49.789 5.6 332 18.7 101470 65
2005-05-27 07:07:32 51°12.803 2°49.761 6.1 334 18.7 101470 65
2005-05-27 07:07:38 51°12.792 2°49.73 5.9 330 18.7 101470 65
2005-05-27 07:07:43 51°12.782 2°49.702 6.1 334 18.7 101470 65
2005-05-27 07:07:48 51°12.771 2°49.67 6.1 332 18.7 101470 65
2005-05-27 07:07:52 51°12.763 2°49.648 6.2 330 18.7 101470 65
2005-05-27 07:07:58 51°12.752 2°49.617 6.5 326 18.7 101470 65
2005-05-27 07:08:02 51°12.743 2°49.592 6.3 327 18.7 101470 65
2005-05-27 07:08:08 51°12.731 2°49.561 6.4 329 18.7 101470 65
2005-05-27 07:08:12 51°12.722 2°49.536 6.5 333 18.7 101460 65
2005-05-27 07:08:18 51°12.711 2°49.506 6.4 329 18.7 101460 65
2005-05-27 07:08:22 51°12.703 2°49.484 6.4 332 18.7 101470 65
2005-05-27 07:08:28 51°12.69 2°49.45 5.8 334 18.7 101470 65
2005-05-27 07:08:32 51°12.681 2°49.425 6.5 329 18.7 101460 65
2005-05-27 07:08:38 51°12.67 2°49.394 6.5 329 18.7 101460 65
2005-05-27 07:08:42 51°12.661 2°49.368 5.9 331 18.6 101470 65
2005-05-27 07:08:48 51°12.65 2°49.338 6.4 331 18.6 101470 65
2005-05-27 07:08:52 51°12.641 2°49.312 5.9 331 18.6 101470 66
2005-05-27 07:08:57 51°12.632 2°49.287 6.3 336 18.6 101470 66
2005-05-27 07:09:02 51°12.622 2°49.259 6.2 337 18.6 101460 66
2005-05-27 07:09:08 51°12.61 2°49.226 6.1 336 18.6 101460 66
2005-05-27 07:09:12 51°12.6 2°49.201 5.6 340 18.6 101470 66
2005-05-27 07:09:18 51°12.589 2°49.17 6.1 337 18.6 101470 66
2005-05-27 07:09:22 51°12.58 2°49.145 6 338 18.6 101460 66
2005-05-27 07:09:28 51°12.569 2°49.114 5.8 337 18.6 101460 66
2005-05-27 07:09:32 51°12.56 2°49.089 5.9 335 18.6 101470 67
2005-05-27 07:09:36 51°12.552 2°49.067 6.4 328 18.6 101470 67
2005-05-27 07:09:43 51°12.539 2°49.031 6.2 330 18.6 101460 67
2005-05-27 07:09:48 51°12.528 2°49.003 6.3 332 18.6 101460 67
2005-05-27 07:09:52 51°12.519 2°48.978 6.1 329 18.6 101460 67
2005-05-27 07:09:58 51°12.508 2°48.947 5.7 329 18.6 101460 67
2005-05-27 07:10:02 51°12.499 2°48.925 6.1 330 18.6 101460 67
2005-05-27 07:10:08 51°12.487 2°48.892 5.7 331 18.6 101460 67
2005-05-27 07:10:12 51°12.478 2°48.867 6.3 333 18.6 101470 67
2005-05-27 07:10:18 51°12.466 2°48.836 5.9 332 18.6 101470 67
2005-05-27 07:10:22 51°12.457 2°48.811 5.7 336 18.6 101470 67
2005-05-27 07:10:28 51°12.446 2°48.781 5.6 337 18.6 101470 67
2005-05-27 07:10:32 51°12.437 2°48.756 5.5 336 18.6 101470 67
2005-05-27 07:10:38 51°12.426 2°48.725 5.3 336 18.6 101470 67
2005-05-27 07:10:42 51°12.416 2°48.699 5.7 336 18.5 101460 67
2005-05-27 07:10:47 51°12.406 2°48.672 5.7 333 18.5 101460 67
2005-05-27 07:10:52 51°12.397 2°48.647 5.3 331 18.5 101460 67
2005-05-27 07:10:58 51°12.385 2°48.614 5.6 335 18.5 101460 67
2005-05-27 07:11:02 51°12.377 2°48.591 5.5 336 18.5 101460 68
2005-05-27 07:11:08 51°12.364 2°48.558 5.3 336 18.5 101460 68
2005-05-27 07:11:12 51°12.356 2°48.533 5.5 337 18.5 101460 68
2005-05-27 07:11:18 51°12.344 2°48.502 5.3 340 18.5 101460 68
2005-05-27 07:11:23 51°12.334 2°48.474 5.6 339 18.5 101460 68
2005-05-27 07:11:28 51°12.324 2°48.446 5.4 340 18.5 101460 68
2005-05-27 07:11:32 51°12.315 2°48.422 5.6 340 18.5 101460 68
2005-05-27 07:11:38 51°12.304 2°48.391 5.3 341 18.5 101460 68
2005-05-27 07:11:42 51°12.296 2°48.368 5.2 341 18.5 101460 68
2005-05-27 07:11:48 51°12.283 2°48.335 5.4 342 18.5 101460 68
2005-05-27 07:11:52 51°12.274 2°48.31 5.3 341 18.5 101460 68
2005-05-27 07:11:58 51°12.263 2°48.279 5.6 342 18.5 101460 68
2005-05-27 07:12:02 51°12.255 2°48.257 5.3 339 18.5 101460 68
2005-05-27 07:12:08 51°12.243 2°48.223 5.4 341 18.5 101460 68
2005-05-27 07:12:12 51°12.233 2°48.198 5.7 340 18.5 101460 69
2005-05-27 07:12:18 51°12.222 2°48.167 5.8 338 18.5 101460 69
2005-05-27 07:12:22 51°12.213 2°48.142 5.3 340 18.5 101460 69
2005-05-27 07:12:28 51°12.202 2°48.111 5.6 339 18.5 101460 69
2005-05-27 07:12:32 51°12.193 2°48.086 5.6 342 18.5 101460 69
2005-05-27 07:12:38 51°12.181 2°48.055 5.8 338 18.5 101460 69
2005-05-27 07:12:42 51°12.173 2°48.033 5.8 338 18.5 101460 69
2005-05-27 07:12:47 51°12.162 2°48.002 5.6 339 18.5 101460 69
2005-05-27 07:12:53 51°12.151 2°47.971 5.6 339 18.5 101460 69
2005-05-27 07:12:58 51°12.141 2°47.943 5.9 333 18.5 101460 69
2005-05-27 07:13:03 51°12.13 2°47.915 6.1 336 18.5 101460 69
2005-05-27 07:13:07 51°12.121 2°47.89 6.2 336 18.5 101460 69
2005-05-27 07:13:13 51°12.11 2°47.859 5.8 341 18.5 101460 69
2005-05-27 07:13:18 51°12.099 2°47.831 5.6 340 18.5 101460 69
2005-05-27 07:13:23 51°12.089 2°47.803 5.6 337 18.5 101460 69
2005-05-27 07:13:28 51°12.079 2°47.775 5.3 342 18.5 101460 69
2005-05-27 07:13:32 51°12.072 2°47.752 5.2 340 18.5 101460 69
2005-05-27 07:13:38 51°12.061 2°47.717 5.6 345 18.5 101460 69
2005-05-27 07:13:42 51°12.054 2°47.693 5.4 344 18.5 101460 69
2005-05-27 07:13:48 51°12.043 2°47.658 5.1 345 18.5 101460 69
2005-05-27 07:13:52 51°12.035 2°47.632 5.3 337 18.4 101460 69
2005-05-27 07:13:58 51°12.025 2°47.6 5.2 341 18.4 101460 69
2005-05-27 07:14:02 51°12.018 2°47.576 5.4 342 18.4 101460 69
2005-05-27 07:14:08 51°12.008 2°47.541 5.6 344 18.4 101460 69
2005-05-27 07:14:12 51°12 2°47.514 5.6 343 18.4 101460 69
2005-05-27 07:14:18 51°11.991 2°47.482 5.6 345 18.4 101460 69
2005-05-27 07:14:22 51°11.983 2°47.455 5.5 348 18.4 101460 69
2005-05-27 07:14:28 51°11.972 2°47.42 5.8 346 18.4 101460 69
2005-05-27 07:14:32 51°11.965 2°47.397 5.5 350 18.4 101460 69
2005-05-27 07:14:37 51°11.958 2°47.37 6 344 18.4 101460 69
2005-05-27 07:14:42 51°11.949 2°47.341 5.4 346 18.3 101470 69
2005-05-27 07:14:48 51°11.938 2°47.306 5.4 350 18.3 101470 69
2005-05-27 07:14:52 51°11.93 2°47.279 5.3 355 18.3 101460 70
2005-05-27 07:14:58 51°11.92 2°47.247 5.3 350 18.3 101460 70
2005-05-27 07:15:02 51°11.912 2°47.22 5.6 347 18.3 101460 70
2005-05-27 07:15:08 51°11.902 2°47.188 5.2 356 18.3 101460 70
2005-05-27 07:15:12 51°11.894 2°47.162 5.9 343 18.2 101460 70
2005-05-27 07:15:18 51°11.884 2°47.13 5.3 344 18.2 101460 70
2005-05-27 07:15:22 51°11.877 2°47.107 5.7 340 18.2 101460 70
2005-05-27 07:15:28 51°11.866 2°47.072 5.7 344 18.2 101460 70
2005-05-27 07:15:32 51°11.858 2°47.046 5.6 339 18.1 101460 70
2005-05-27 07:15:38 51°11.848 2°47.014 5.9 340 18.1 101460 70
2005-05-27 07:15:42 51°11.841 2°46.99 6.3 334 18.1 101460 70
2005-05-27 07:15:47 51°11.831 2°46.958 5.8 335 18.1 101460 70
2005-05-27 07:15:52 51°11.823 2°46.928 5.8 333 18.1 101460 70
2005-05-27 07:15:58 51°11.813 2°46.896 5.4 336 18.1 101460 70
2005-05-27 07:16:02 51°11.806 2°46.873 6.3 332 18.1 101460 70
2005-05-27 07:16:08 51°11.796 2°46.838 6 335 18.1 101460 70
2005-05-27 07:16:12 51°11.788 2°46.811 5.9 338 18.1 101460 70
2005-05-27 07:16:18 51°11.778 2°46.779 5.6 337 18.1 101460 70
2005-05-27 07:16:22 51°11.771 2°46.755 5.6 337 18.1 101460 70
2005-05-27 07:16:28 51°11.761 2°46.72 5.6 340 18.1 101460 70
2005-05-27 07:16:32 51°11.753 2°46.693 5.4 341 18.1 101460 70
2005-05-27 07:16:36 51°11.746 2°46.67 5.7 339 18.1 101460 70
2005-05-27 07:16:43 51°11.734 2°46.632 5.6 333 18.1 101460 70
2005-05-27 07:16:48 51°11.726 2°46.603 5.3 335 18.1 101460 70
2005-05-27 07:16:53 51°11.717 2°46.573 5.5 343 18.1 101460 70
2005-05-27 07:16:56 51°11.711 2°46.553 5.8 341 18.1 101460 70
2005-05-27 07:17:02 51°11.701 2°46.521 5.4 345 18.1 101460 70
2005-05-27 07:17:08 51°11.69 2°46.486 5.5 342 18.1 101460 70
2005-05-27 07:17:12 51°11.682 2°46.46 5.6 340 18.2 101460 70
2005-05-27 07:17:18 51°11.672 2°46.428 5.9 344 18.2 101460 70
2005-05-27 07:17:22 51°11.664 2°46.401 5.3 342 18.2 101460 70
2005-05-27 07:17:28 51°11.654 2°46.369 5.4 346 18.2 101460 70
2005-05-27 07:17:33 51°11.645 2°46.34 6.1 338 18.2 101460 69
2005-05-27 07:17:38 51°11.636 2°46.311 5.7 338 18.2 101460 69
2005-05-27 07:17:42 51°11.629 2°46.288 5.4 339 18.3 101460 69
2005-05-27 07:17:48 51°11.618 2°46.253 5.2 342 18.3 101460 69
2005-05-27 07:17:52 51°11.61 2°46.227 5.4 347 18.3 101460 69
2005-05-27 07:17:57 51°11.602 2°46.197 6.1 345 18.3 101460 69
2005-05-27 07:18:03 51°11.594 2°46.164 5.3 354 18.3 101460 69
2005-05-27 07:18:08 51°11.586 2°46.134 5.5 350 18.3 101460 69
2005-05-27 07:18:12 51°11.58 2°46.106 5.6 347 18.3 101460 69
2005-05-27 07:18:18 51°11.573 2°46.073 5.6 344 18.3 101460 69
2005-05-27 07:18:22 51°11.567 2°46.048 5.3 340 18.3 101460 69
2005-05-27 07:18:28 51°11.559 2°46.011 5.5 341 18.3 101460 69
2005-05-27 07:18:33 51°11.553 2°45.981 5 341 18.3 101460 69
2005-05-27 07:18:37 51°11.547 2°45.953 4.9 341 18.3 101460 69
2005-05-27 07:18:43 51°11.54 2°45.919 5.2 341 18.3 101460 69
2005-05-27 07:18:47 51°11.534 2°45.892 5.2 341 18.3 101460 69
2005-05-27 07:18:52 51°11.527 2°45.861 5.2 341 18.3 101460 69
2005-05-27 07:18:58 51°11.52 2°45.827 5.8 348 18.3 101460 69
2005-05-27 07:19:02 51°11.515 2°45.803 5.4 339 18.3 101460 69
2005-05-27 07:19:08 51°11.507 2°45.766 4.8 346 18.3 101460 69
2005-05-27 07:19:12 51°11.501 2°45.738 4.8 341 18.4 101460 69
2005-05-27 07:19:18 51°11.493 2°45.705 4.8 346 18.4 101460 69
2005-05-27 07:19:22 51°11.488 2°45.68 4.8 340 18.4 101460 69
2005-05-27 07:19:28 51°11.48 2°45.644 5.1 345 18.4 101460 69
2005-05-27 07:19:32 51°11.474 2°45.616 5 344 18.4 101460 69
2005-05-27 07:19:38 51°11.467 2°45.582 5 343 18.4 101460 69
2005-05-27 07:19:42 51°11.461 2°45.558 4.9 339 18.4 101460 69
2005-05-27 07:19:48 51°11.453 2°45.521 4.9 339 18.4 101460 69
2005-05-27 07:19:52 51°11.447 2°45.494 5.1 342 18.4 101460 69
2005-05-27 07:19:58 51°11.439 2°45.46 5 343 18.4 101460 69
2005-05-27 07:20:02 51°11.434 2°45.435 4.6 343 18.4 101460 69
2005-05-27 07:20:08 51°11.426 2°45.398 4.9 346 18.4 101460 69
2005-05-27 07:20:12 51°11.421 2°45.371 5.2 344 18.6 101460 69
2005-05-27 07:20:18 51°11.414 2°45.336 4.9 345 18.6 101460 69
2005-05-27 07:20:22 51°11.408 2°45.312 5.2 344 18.4 101460 69
2005-05-27 07:20:28 51°11.4 2°45.275 5.2 346 18.4 101460 69
2005-05-27 07:20:32 51°11.394 2°45.247 5.2 346 18.5 101460 69
2005-05-27 07:20:38 51°11.387 2°45.213 5.1 346 18.5 101460 69
2005-05-27 07:20:42 51°11.382 2°45.189 5.3 342 18.5 101460 69
2005-05-27 07:20:48 51°11.374 2°45.151 5.2 347 18.5 101460 69
2005-05-27 07:20:52 51°11.368 2°45.124 5.1 349 18.5 101460 69
2005-05-27 07:20:58 51°11.361 2°45.09 4.8 347 18.5 101460 69
2005-05-27 07:21:02 51°11.356 2°45.065 5.1 347 18.5 101460 69
2005-05-27 07:21:08 51°11.348 2°45.028 5.2 345 18.5 101460 69
2005-05-27 07:21:12 51°11.343 2°45 5.1 349 18.5 101460 69
2005-05-27 07:21:17 51°11.337 2°44.969 4.9 352 18.5 101460 69
2005-05-27 07:21:22 51°11.332 2°44.94 4.8 349 18.5 101460 69
2005-05-27 07:21:28 51°11.325 2°44.903 4.9 348 18.5 101460 69
2005-05-27 07:21:32 51°11.32 2°44.875 5 350 18.5 101460 68
2005-05-27 07:21:38 51°11.313 2°44.84 5.1 350 18.5 101460 68
2005-05-27 07:21:42 51°11.309 2°44.815 5 346 18.5 101460 68
2005-05-27 07:21:48 51°11.302 2°44.778 5.1 344 18.5 101460 68
2005-05-27 07:21:52 51°11.297 2°44.75 5 347 18.5 101460 68
2005-05-27 07:21:58 51°11.291 2°44.715 4.9 344 18.5 101460 68
2005-05-27 07:22:02 51°11.286 2°44.69 5.1 344 18.5 101460 68
2005-05-27 07:22:08 51°11.279 2°44.653 4.9 345 18.5 101460 68
2005-05-27 07:22:13 51°11.274 2°44.622 4.8 345 18.5 101460 68
2005-05-27 07:22:18 51°11.268 2°44.59 4.9 344 18.5 101460 68
2005-05-27 07:22:22 51°11.263 2°44.565 5.1 346 18.5 101460 68
2005-05-27 07:22:28 51°11.257 2°44.527 4.9 347 18.5 101460 68
2005-05-27 07:22:32 51°11.251 2°44.499 5.3 346 18.5 101460 68
2005-05-27 07:22:38 51°11.245 2°44.465 4.9 346 18.5 101460 68
2005-05-27 07:22:42 51°11.24 2°44.436 5.1 344 18.5 101460 68
2005-05-27 07:22:48 51°11.233 2°44.402 4.9 344 18.5 101460 68
2005-05-27 07:22:52 51°11.228 2°44.374 4.8 348 18.5 101460 69
2005-05-27 07:22:58 51°11.221 2°44.34 4.9 347 18.5 101460 69
2005-05-27 07:23:03 51°11.216 2°44.308 5.1 343 18.5 101460 69
2005-05-27 07:23:07 51°11.211 2°44.28 5.3 345 18.5 101460 69
2005-05-27 07:23:12 51°11.206 2°44.251 5.2 342 18.5 101460 69
2005-05-27 07:23:17 51°11.199 2°44.217 5.4 343 18.5 101460 69
2005-05-27 07:23:23 51°11.193 2°44.183 5.1 342 18.5 101460 69
2005-05-27 07:23:28 51°11.187 2°44.151 5 341 18.5 101460 69
2005-05-27 07:23:33 51°11.181 2°44.12 5.1 341 18.6 101460 69
2005-05-27 07:23:37 51°11.176 2°44.092 4.9 342 18.6 101460 69
2005-05-27 07:23:42 51°11.171 2°44.064 5 343 18.6 101450 69
2005-05-27 07:23:48 51°11.164 2°44.026 5.1 342 18.6 101450 69
2005-05-27 07:23:52 51°11.159 2°43.998 5 340 18.6 101450 69
2005-05-27 07:23:58 51°11.153 2°43.964 5.2 339 18.6 101450 69
2005-05-27 07:24:02 51°11.148 2°43.935 5.3 339 18.6 101460 69
2005-05-27 07:24:08 51°11.142 2°43.901 5.5 339 18.6 101460 69
2005-05-27 07:24:12 51°11.137 2°43.873 5.6 340 18.6 101450 69
2005-05-27 07:24:18 51°11.131 2°43.838 5.3 340 18.6 101450 69
2005-05-27 07:24:23 51°11.126 2°43.807 5.3 341 18.6 101460 69
2005-05-27 07:24:28 51°11.12 2°43.775 5 341 18.6 101460 69
2005-05-27 07:24:32 51°11.115 2°43.747 4.8 336 18.6 101460 69
2005-05-27 07:24:37 51°11.11 2°43.715 5 336 18.6 101460 69
2005-05-27 07:24:43 51°11.104 2°43.681 4.7 338 18.6 101460 69
2005-05-27 07:24:48 51°11.098 2°43.65 4.6 336 18.6 101460 69
2005-05-27 07:24:52 51°11.093 2°43.621 4.9 336 18.6 101460 69
2005-05-27 07:24:58 51°11.087 2°43.587 4.7 335 18.6 101460 69
2005-05-27 07:25:03 51°11.081 2°43.556 4.9 340 18.6 101460 69
2005-05-27 07:25:08 51°11.075 2°43.524 5 342 18.6 101460 69
2005-05-27 07:25:12 51°11.07 2°43.496 5 345 18.6 101460 69
2005-05-27 07:25:18 51°11.064 2°43.462 4.8 342 18.6 101460 69
2005-05-27 07:25:22 51°11.059 2°43.433 4.7 343 18.6 101460 69
2005-05-27 07:25:28 51°11.053 2°43.399 5.1 342 18.6 101460 69
2005-05-27 07:25:32 51°11.048 2°43.371 5 345 18.6 101450 68
2005-05-27 07:25:36 51°11.043 2°43.346 5 342 18.6 101450 68
2005-05-27 07:25:43 51°11.036 2°43.305 4.6 341 18.6 101450 69
2005-05-27 07:25:48 51°11.031 2°43.273 4.8 341 18.6 101450 69
2005-05-27 07:25:52 51°11.026 2°43.245 4.6 340 18.6 101460 68
2005-05-27 07:25:58 51°11.019 2°43.211 5 339 18.6 101460 68
2005-05-27 07:26:03 51°11.014 2°43.179 5 339 18.6 101460 68
2005-05-27 07:26:08 51°11.008 2°43.148 5.2 338 18.6 101460 68
2005-05-27 07:26:12 51°11.002 2°43.12 5.1 340 18.6 101460 68
2005-05-27 07:26:17 51°10.997 2°43.088 5.1 342 18.6 101460 68
2005-05-27 07:26:22 51°10.992 2°43.06 5.1 341 18.6 101460 68
2005-05-27 07:26:28 51°10.985 2°43.023 5.1 342 18.6 101460 68
2005-05-27 07:26:33 51°10.979 2°42.992 5.4 344 18.6 101460 68
2005-05-27 07:26:38 51°10.974 2°42.96 5.5 342 18.6 101460 68
2005-05-27 07:26:42 51°10.969 2°42.935 5.1 342 18.7 101450 68
2005-05-27 07:26:48 51°10.962 2°42.898 5.2 342 18.7 101450 68
2005-05-27 07:26:53 51°10.956 2°42.867 5.1 341 18.6 101460 68
2005-05-27 07:26:57 51°10.951 2°42.839 5 342 18.6 101460 68
2005-05-27 07:27:02 51°10.946 2°42.811 5 340 18.7 101460 68
2005-05-27 07:27:08 51°10.939 2°42.773 5.3 340 18.7 101460 68
2005-05-27 07:27:12 51°10.934 2°42.745 5.3 340 18.6 101450 68
2005-05-27 07:27:18 51°10.928 2°42.711 4.9 342 18.6 101450 68
2005-05-27 07:27:22 51°10.923 2°42.686 5.2 342 18.6 101460 68
2005-05-27 07:27:28 51°10.917 2°42.649 5.3 342 18.6 101460 68
2005-05-27 07:27:32 51°10.912 2°42.621 5.2 342 18.7 101450 68
2005-05-27 07:27:37 51°10.907 2°42.593 5.4 342 18.7 101450 68
2005-05-27 07:27:42 51°10.902 2°42.562 5.1 343 18.7 101460 68
2005-05-27 07:27:48 51°10.895 2°42.525 5 343 18.7 101460 68
2005-05-27 07:27:52 51°10.89 2°42.497 5.4 343 18.7 101450 68
2005-05-27 07:27:58 51°10.884 2°42.463 5.4 343 18.7 101450 68
2005-05-27 07:28:02 51°10.879 2°42.438 5.4 340 18.7 101460 68
2005-05-27 07:28:08 51°10.873 2°42.401 5.4 341 18.7 101460 68
2005-05-27 07:28:12 51°10.868 2°42.373 5.3 343 18.7 101460 68
2005-05-27 07:28:18 51°10.862 2°42.339 5.2 339 18.7 101460 68
2005-05-27 07:28:22 51°10.857 2°42.315 5.2 343 18.7 101450 68
2005-05-27 07:28:28 51°10.851 2°42.278 5.1 341 18.7 101450 68
2005-05-27 07:28:32 51°10.845 2°42.25 5.1 343 18.7 101450 68
2005-05-27 07:28:38 51°10.839 2°42.216 5.4 342 18.7 101450 68
2005-05-27 07:28:43 51°10.833 2°42.185 5 341 18.7 101460 68
2005-05-27 07:28:48 51°10.828 2°42.154 5 340 18.7 101460 68
2005-05-27 07:28:52 51°10.823 2°42.126 4.9 339 18.8 101450 68
2005-05-27 07:28:58 51°10.817 2°42.092 4.7 -999 18.8 101450 68
2005-05-27 07:29:02 51°10.812 2°42.064 4.9 339 18.8 101450 68
2005-05-27 07:29:08 51°10.806 2°42.03 5.1 339 18.8 101450 68
2005-05-27 07:29:12 51°10.801 2°42.002 4.9 340 18.8 101450 68
2005-05-27 07:29:18 51°10.795 2°41.968 5 338 18.8 101450 68
2005-05-27 07:29:22 51°10.79 2°41.94 5.1 339 18.8 101460 68
2005-05-27 07:29:28 51°10.784 2°41.906 5 340 18.8 101460 68
2005-05-27 07:29:32 51°10.779 2°41.878 5.1 336 18.8 101450 68
2005-05-27 07:29:38 51°10.773 2°41.844 5.2 337 18.8 101450 68
2005-05-27 07:29:42 51°10.769 2°41.819 5.1 337 18.8 101450 68
2005-05-27 07:29:48 51°10.762 2°41.782 4.9 337 18.8 101450 68
2005-05-27 07:29:52 51°10.757 2°41.754 4.9 334 18.8 101450 68
2005-05-27 07:29:58 51°10.751 2°41.719 5.3 336 18.8 101450 68
2005-05-27 07:30:02 51°10.747 2°41.695 5.2 338 18.9 101450 68
2005-05-27 07:30:08 51°10.74 2°41.657 5.4 337 18.9 101450 68
2005-05-27 07:30:12 51°10.735 2°41.629 5.1 335 18.9 101450 68
2005-05-27 07:30:18 51°10.729 2°41.595 5.1 335 18.9 101450 68
2005-05-27 07:30:22 51°10.724 2°41.57 5.3 334 18.9 101450 68
2005-05-27 07:30:28 51°10.718 2°41.533 5.4 334 18.9 101450 68
2005-05-27 07:30:32 51°10.713 2°41.505 5.6 333 18.9 101450 68
2005-05-27 07:30:38 51°10.707 2°41.47 5.4 334 18.9 101450 68
2005-05-27 07:30:42 51°10.702 2°41.445 5.2 334 18.9 101450 68
2005-05-27 07:30:48 51°10.696 2°41.408 5.5 333 18.9 101450 68
2005-05-27 07:30:52 51°10.691 2°41.38 5.3 333 18.9 101450 68
2005-05-27 07:30:58 51°10.684 2°41.346 5.2 333 18.9 101450 68
2005-05-27 07:31:02 51°10.68 2°41.321 5.5 332 18.9 101450 68
2005-05-27 07:31:08 51°10.673 2°41.28 5.6 330 18.9 101450 68
2005-05-27 07:31:12 51°10.669 2°41.255 5.2 330 18.9 101450 68
2005-05-27 07:31:18 51°10.663 2°41.22 5.6 329 18.9 101450 68
2005-05-27 07:31:23 51°10.657 2°41.189 5.5 331 18.9 101450 68
2005-05-27 07:31:28 51°10.652 2°41.158 5.7 331 18.9 101450 68
2005-05-27 07:31:32 51°10.646 2°41.13 5.1 332 18.9 101450 67
2005-05-27 07:31:38 51°10.64 2°41.095 5.2 331 18.9 101450 67
2005-05-27 07:31:42 51°10.636 2°41.07 5.3 331 18.9 101450 67
2005-05-27 07:31:48 51°10.629 2°41.032 5.4 330 18.9 101450 67
2005-05-27 07:31:52 51°10.624 2°41.004 5.6 331 18.9 101450 67
2005-05-27 07:31:58 51°10.618 2°40.97 5.3 328 18.9 101450 67
2005-05-27 07:32:02 51°10.613 2°40.941 5.9 328 19 101450 67
2005-05-27 07:32:08 51°10.607 2°40.907 5.7 328 19 101450 67
2005-05-27 07:32:12 51°10.602 2°40.878 5.4 328 18.9 101450 67
2005-05-27 07:32:16 51°10.598 2°40.853 5.3 330 18.9 101450 67
2005-05-27 07:32:22 51°10.591 2°40.819 5.7 328 19 101450 67
2005-05-27 07:32:28 51°10.584 2°40.781 5.3 329 19 101450 67
2005-05-27 07:32:33 51°10.579 2°40.75 5.4 329 19 101450 67
2005-05-27 07:32:38 51°10.573 2°40.718 5.5 331 19 101450 67
2005-05-27 07:32:42 51°10.569 2°40.693 5.1 331 19 101450 66
2005-05-27 07:32:48 51°10.562 2°40.652 5.5 331 19 101450 66
2005-05-27 07:32:52 51°10.557 2°40.627 5.2 333 19 101450 66
2005-05-27 07:32:58 51°10.551 2°40.593 6 327 19 101450 66
2005-05-27 07:33:02 51°10.547 2°40.567 5.3 329 19 101450 66
2005-05-27 07:33:08 51°10.54 2°40.53 5.8 327 19 101450 66
2005-05-27 07:33:13 51°10.535 2°40.498 5.9 330 19 101450 66
2005-05-27 07:33:18 51°10.529 2°40.467 6 327 19 101450 66
2005-05-27 07:33:22 51°10.524 2°40.438 5.5 327 19 101450 66
2005-05-27 07:33:28 51°10.518 2°40.404 5.8 327 19 101450 66
2005-05-27 07:33:33 51°10.512 2°40.372 5.1 329 19 101450 66
2005-05-27 07:33:37 51°10.508 2°40.343 5 327 19 101450 66
2005-05-27 07:33:42 51°10.504 2°40.315 5.4 329 19 101450 66
2005-05-27 07:33:48 51°10.498 2°40.277 5.1 327 19 101450 66
2005-05-27 07:33:53 51°10.493 2°40.245 5.5 326 19 101450 66
2005-05-27 07:33:58 51°10.488 2°40.213 5.2 327 19 101450 66
2005-05-27 07:34:02 51°10.484 2°40.188 5.2 330 19 101450 66
2005-05-27 07:34:08 51°10.478 2°40.15 5.6 329 19 101450 66
2005-05-27 07:34:12 51°10.474 2°40.121 5.4 327 19 101450 66
2005-05-27 07:34:18 51°10.469 2°40.086 5.2 327 19 101450 66
2005-05-27 07:34:22 51°10.465 2°40.061 5.5 326 19 101450 66
2005-05-27 07:34:28 51°10.459 2°40.023 5.3 325 19 101450 66
2005-05-27 07:34:32 51°10.454 2°39.994 5.3 326 19 101450 66
2005-05-27 07:34:38 51°10.449 2°39.959 5.3 322 19 101450 66
2005-05-27 07:34:43 51°10.444 2°39.927 5.1 326 19 101450 66
2005-05-27 07:34:48 51°10.439 2°39.896 5.4 325 19 101450 66
2005-05-27 07:34:52 51°10.435 2°39.867 5.3 325 19 101450 66
2005-05-27 07:34:58 51°10.43 2°39.831 5 323 19 101450 66
2005-05-27 07:35:03 51°10.425 2°39.8 5.2 324 19.1 101450 66
2005-05-27 07:35:08 51°10.421 2°39.768 5.3 326 19.1 101450 66
2005-05-27 07:35:12 51°10.416 2°39.739 5.3 328 19.1 101450 66
2005-05-27 07:35:18 51°10.411 2°39.704 5.2 326 19.1 101450 66
2005-05-27 07:35:22 51°10.407 2°39.678 5.4 326 19.1 101450 66
2005-05-27 07:35:28 51°10.401 2°39.64 5.3 326 19.1 101450 66
2005-05-27 07:35:32 51°10.397 2°39.611 5.1 326 19.1 101450 66
2005-05-27 07:35:38 51°10.392 2°39.576 5.3 325 19.1 101450 66
2005-05-27 07:35:42 51°10.388 2°39.551 5.7 324 19.1 101440 66
2005-05-27 07:35:48 51°10.382 2°39.513 5.3 324 19.1 101440 66
2005-05-27 07:35:53 51°10.377 2°39.481 5.3 324 19.1 101450 65
2005-05-27 07:35:56 51°10.374 2°39.459 5.6 324 19.1 101450 65
2005-05-27 07:36:02 51°10.368 2°39.424 5.4 322 19.1 101440 65
2005-05-27 07:36:08 51°10.362 2°39.386 5.4 323 19.1 101440 65
2005-05-27 07:36:13 51°10.357 2°39.354 5.3 324 19.1 101440 65
2005-05-27 07:36:18 51°10.353 2°39.322 5.3 323 19.1 101440 65
2005-05-27 07:36:22 51°10.349 2°39.297 5.7 324 19.1 101450 65
2005-05-27 07:36:28 51°10.343 2°39.258 5.3 324 19.1 101450 65
2005-05-27 07:36:32 51°10.34 2°39.233 5.3 321 19.1 101440 65
2005-05-27 07:36:38 51°10.334 2°39.195 5.6 328 19.1 101440 65
2005-05-27 07:36:43 51°10.329 2°39.163 5.7 325 19.1 101450 65
2005-05-27 07:36:48 51°10.325 2°39.131 6.1 322 19.1 101450 65
2005-05-27 07:36:53 51°10.32 2°39.099 5.5 324 19.1 101440 65
2005-05-27 07:36:58 51°10.315 2°39.067 5.5 323 19.1 101440 65
2005-05-27 07:37:02 51°10.311 2°39.041 5.4 322 19.1 101450 65
2005-05-27 07:37:08 51°10.306 2°39.003 5.3 323 19.1 101450 65
2005-05-27 07:37:12 51°10.301 2°38.974 5.8 324 19.1 101440 65
2005-05-27 07:37:18 51°10.297 2°38.939 5.3 326 19.1 101440 65
2005-05-27 07:37:22 51°10.293 2°38.913 5.7 325 19.1 101440 65
2005-05-27 07:37:28 51°10.286 2°38.872 5.6 327 19.1 101440 65
2005-05-27 07:37:32 51°10.282 2°38.847 6.2 327 19.1 101440 65
2005-05-27 07:37:38 51°10.277 2°38.812 5.8 327 19.1 101440 65
2005-05-27 07:37:42 51°10.273 2°38.786 6.1 328 19.1 101440 65
2005-05-27 07:37:48 51°10.266 2°38.745 6.1 327 19.1 101440 65
2005-05-27 07:37:52 51°10.262 2°38.72 5.9 328 19.1 101440 65
2005-05-27 07:37:58 51°10.257 2°38.685 5.8 327 19.1 101440 65
2005-05-27 07:38:02 51°10.252 2°38.656 5.7 327 19.1 101440 64
2005-05-27 07:38:08 51°10.247 2°38.621 5.9 327 19.1 101440 64
2005-05-27 07:38:13 51°10.242 2°38.589 6.2 328 19.1 101440 64
2005-05-27 07:38:18 51°10.236 2°38.558 6.3 326 19.1 101440 64
2005-05-27 07:38:22 51°10.232 2°38.533 6.2 327 19.2 101440 64
2005-05-27 07:38:28 51°10.225 2°38.495 6.2 328 19.2 101440 64
2005-05-27 07:38:33 51°10.22 2°38.463 6.1 327 19.2 101440 64
2005-05-27 07:38:38 51°10.214 2°38.432 5.9 328 19.2 101440 64
2005-05-27 07:38:42 51°10.209 2°38.407 6.3 328 19.2 101440 64
2005-05-27 07:38:47 51°10.203 2°38.372 6 329 19.2 101440 64
2005-05-27 07:38:53 51°10.197 2°38.338 6.6 328 19.2 101440 64
2005-05-27 07:38:58 51°10.191 2°38.306 6.6 328 19.2 101440 64
2005-05-27 07:39:03 51°10.185 2°38.275 5.9 326 19.2 101440 64
2005-05-27 07:39:08 51°10.179 2°38.243 6.4 328 19.2 101440 64
2005-05-27 07:39:12 51°10.174 2°38.215 6.8 327 19.2 101440 64
2005-05-27 07:39:18 51°10.168 2°38.18 6.4 326 19.2 101440 64
2005-05-27 07:39:23 51°10.162 2°38.148 6.4 326 19.2 101440 64
2005-05-27 07:39:28 51°10.156 2°38.117 6.8 324 19.2 101440 64
2005-05-27 07:39:32 51°10.151 2°38.088 6.1 325 19.2 101440 64
2005-05-27 07:39:36 51°10.147 2°38.063 6.2 327 19.2 101440 64
2005-05-27 07:39:42 51°10.141 2°38.025 6.1 327 19.2 101440 64
2005-05-27 07:39:48 51°10.135 2°37.99 6.3 326 19.2 101440 64
2005-05-27 07:39:52 51°10.131 2°37.961 5.8 325 19.2 101440 64
2005-05-27 07:39:58 51°10.125 2°37.926 6.2 325 19.2 101440 64
2005-05-27 07:40:03 51°10.121 2°37.895 5.6 326 19.2 101440 64
2005-05-27 07:40:08 51°10.116 2°37.863 6.3 327 19.2 101440 64
2005-05-27 07:40:12 51°10.112 2°37.834 6.3 328 19.2 101440 64
2005-05-27 07:40:17 51°10.107 2°37.802 6.1 328 19.2 101440 64
2005-05-27 07:40:23 51°10.101 2°37.767 6 328 19.2 101440 64
2005-05-27 07:40:28 51°10.097 2°37.735 6.1 330 19.2 101440 64
2005-05-27 07:40:32 51°10.092 2°37.706 6.1 330 19.2 101440 64
2005-05-27 07:40:38 51°10.087 2°37.671 5.9 329 19.2 101440 64
2005-05-27 07:40:43 51°10.082 2°37.639 6 331 19.2 101440 64
2005-05-27 07:40:48 51°10.078 2°37.607 5.7 334 19.2 101440 64
2005-05-27 07:40:52 51°10.073 2°37.578 5.1 327 19.2 101440 64
2005-05-27 07:40:58 51°10.068 2°37.543 6 326 19.2 101440 64
2005-05-27 07:41:02 51°10.064 2°37.518 5.9 326 19.2 101440 64
2005-05-27 07:41:08 51°10.059 2°37.479 6 326 19.2 101440 64
2005-05-27 07:41:12 51°10.054 2°37.451 6.1 325 19.2 101440 64
2005-05-27 07:41:18 51°10.049 2°37.416 5.4 328 19.2 101440 64
2005-05-27 07:41:22 51°10.045 2°37.39 5.7 326 19.2 101440 64
2005-05-27 07:41:28 51°10.04 2°37.352 5.5 327 19.2 101440 64
2005-05-27 07:41:32 51°10.036 2°37.323 5.8 328 19.2 101440 64
2005-05-27 07:41:38 51°10.031 2°37.287 5.8 328 19.2 101440 64
2005-05-27 07:41:42 51°10.028 2°37.262 5.6 330 19.2 101440 64
2005-05-27 07:41:48 51°10.023 2°37.223 5.7 332 19.2 101440 64
2005-05-27 07:41:52 51°10.02 2°37.193 5.3 332 19.2 101440 64
2005-05-27 07:41:58 51°10.015 2°37.158 5.6 335 19.2 101440 64
2005-05-27 07:42:03 51°10.011 2°37.126 5.4 333 19.2 101440 64
2005-05-27 07:42:08 51°10.007 2°37.094 5.4 333 19.2 101440 64
2005-05-27 07:42:13 51°10.003 2°37.062 5.4 334 19.2 101440 64
2005-05-27 07:42:16 51°10 2°37.039 5.5 335 19.2 101440 64
2005-05-27 07:42:22 51°9.996 2°37.004 5.2 331 19.1 101450 65
2005-05-27 07:42:28 51°9.991 2°36.965 4.9 338 19.1 101450 65
2005-05-27 07:42:32 51°9.987 2°36.936 5.2 334 19.1 101450 65
2005-05-27 07:42:38 51°9.983 2°36.901 5 335 19.1 101450 65
2005-05-27 07:42:42 51°9.979 2°36.876 5.3 336 19.1 101440 65
2005-05-27 07:42:48 51°9.975 2°36.837 5 340 19.1 101440 65
2005-05-27 07:42:52 51°9.972 2°36.808 5.4 343 19.1 101440 65
2005-05-27 07:42:58 51°9.968 2°36.772 4.9 344 19.1 101440 65
2005-05-27 07:43:03 51°9.965 2°36.74 5 343 19 101440 66
2005-05-27 07:43:08 51°9.962 2°36.707 4.9 346 19 101440 66
2005-05-27 07:43:12 51°9.959 2°36.678 5.1 350 19 101450 66
2005-05-27 07:43:18 51°9.956 2°36.643 5.1 351 19 101450 66
2005-05-27 07:43:23 51°9.954 2°36.61 4.9 353 18.9 101440 66
2005-05-27 07:43:28 51°9.951 2°36.578 4.9 349 18.9 101440 66
2005-05-27 07:43:32 51°9.949 2°36.549 4.8 345 18.8 101440 66
2005-05-27 07:43:38 51°9.946 2°36.513 4.7 347 18.8 101440 66
2005-05-27 07:43:42 51°9.945 2°36.487 4.6 355 18.7 101450 67
2005-05-27 07:43:48 51°9.943 2°36.448 4.8 1 18.7 101450 67
2005-05-27 07:43:52 51°9.941 2°36.419 5.5 2 18.6 101440 67
2005-05-27 07:43:58 51°9.939 2°36.383 5.3 1 18.6 101440 67
2005-05-27 07:44:02 51°9.938 2°36.357 4.4 2 18.5 101440 67
2005-05-27 07:44:08 51°9.937 2°36.318 4.5 4 18.5 101440 67
2005-05-27 07:44:12 51°9.937 2°36.288 5.2 6 18.5 101450 68
2005-05-27 07:44:18 51°9.94 2°36.253 5.1 5 18.5 101450 68
2005-05-27 07:44:22 51°9.942 2°36.227 4.8 12 18.4 101440 68
2005-05-27 07:44:28 51°9.947 2°36.189 4.8 10 18.4 101440 68
2005-05-27 07:44:33 51°9.953 2°36.158 5.7 12 18.3 101450 69
2005-05-27 07:44:37 51°9.958 2°36.13 5.4 18 18.3 101450 69
2005-05-27 07:44:42 51°9.964 2°36.104 5.4 9 18.2 101440 69
2005-05-27 07:44:48 51°9.973 2°36.068 4.9 8 18.2 101440 69
2005-05-27 07:44:52 51°9.981 2°36.042 4.8 25 18.2 101440 69
2005-05-27 07:44:58 51°9.992 2°36.011 4.7 28 18.2 101440 69
2005-05-27 07:45:02 51°10.001 2°35.986 6.3 19 18.2 101440 69
2005-05-27 07:45:08 51°10.014 2°35.958 5.8 21 18.2 101440 69
2005-05-27 07:45:12 51°10.025 2°35.936 6 24 18.2 101440 70
2005-05-27 07:45:18 51°10.039 2°35.91 6 26 18.2 101440 70
2005-05-27 07:45:23 51°10.052 2°35.887 6.4 26 18.2 101440 70
2005-05-27 07:45:28 51°10.066 2°35.864 6.3 24 18.2 101440 70
2005-05-27 07:45:32 51°10.079 2°35.846 6.7 31 18.2 101440 70
2005-05-27 07:45:38 51°10.095 2°35.826 7.3 25 18.2 101440 70
2005-05-27 07:45:43 51°10.111 2°35.808 7.5 27 18.1 101440 70
2005-05-27 07:45:48 51°10.127 2°35.792 7.6 25 18.1 101440 70
2005-05-27 07:45:53 51°10.143 2°35.778 7.9 27 18.1 101440 70
2005-05-27 07:45:58 51°10.16 2°35.764 7.8 28 18.1 101440 70
2005-05-27 07:46:02 51°10.174 2°35.754 7.5 29 18.1 101440 70
2005-05-27 07:46:08 51°10.194 2°35.74 7.5 28 18.1 101440 70
2005-05-27 07:46:12 51°10.209 2°35.73 7.2 30 18.1 101440 70
2005-05-27 07:46:18 51°10.227 2°35.718 7.6 30 18.1 101440 70
2005-05-27 07:46:23 51°10.244 2°35.706 7.5 30 18 101440 70
2005-05-27 07:46:28 51°10.261 2°35.696 7.6 26 18 101440 70
2005-05-27 07:46:33 51°10.278 2°35.687 7.6 30 18 101440 70
2005-05-27 07:46:38 51°10.296 2°35.679 7.6 29 18 101440 70
2005-05-27 07:46:42 51°10.31 2°35.675 8.1 28 18 101440 70
2005-05-27 07:46:48 51°10.332 2°35.672 8 26 18 101440 70
2005-05-27 07:46:52 51°10.348 2°35.673 8.5 25 18 101440 70
2005-05-27 07:46:58 51°10.367 2°35.677 8.7 23 18 101440 70
2005-05-27 07:47:02 51°10.381 2°35.682 8.4 23 18 101440 70
2005-05-27 07:47:08 51°10.401 2°35.69 8.6 24 18 101440 70
2005-05-27 07:47:12 51°10.416 2°35.697 8.5 23 18 101440 70
2005-05-27 07:47:18 51°10.434 2°35.707 8.7 23 18 101440 70
2005-05-27 07:47:22 51°10.447 2°35.715 8.8 24 18 101430 70
2005-05-27 07:47:28 51°10.467 2°35.727 8.9 23 18 101430 70
2005-05-27 07:47:32 51°10.481 2°35.736 8.7 24 18 101440 70
2005-05-27 07:47:38 51°10.499 2°35.747 8.9 24 18 101440 70
2005-05-27 07:47:43 51°10.515 2°35.757 8.7 25 18 101440 70
2005-05-27 07:47:48 51°10.531 2°35.768 8.8 23 18 101440 70
2005-05-27 07:47:52 51°10.545 2°35.778 8.9 25 18 101430 70
2005-05-27 07:47:58 51°10.562 2°35.793 8.8 23 18 101430 70
2005-05-27 07:48:02 51°10.576 2°35.804 8.9 22 18.1 101440 70
2005-05-27 07:48:08 51°10.592 2°35.82 9 21 18.1 101440 70
2005-05-27 07:48:12 51°10.605 2°35.833 9.1 22 18.1 101440 70
2005-05-27 07:48:18 51°10.621 2°35.85 8.9 21 18.1 101440 70
2005-05-27 07:48:23 51°10.636 2°35.865 9.1 24 18.1 101440 70
2005-05-27 07:48:28 51°10.65 2°35.88 9.5 23 18.1 101440 70
2005-05-27 07:48:32 51°10.663 2°35.894 9.3 22 18.1 101430 69
2005-05-27 07:48:38 51°10.679 2°35.91 9.3 24 18.1 101430 69
2005-05-27 07:48:42 51°10.692 2°35.925 9.1 22 18.1 101440 69
2005-05-27 07:48:48 51°10.708 2°35.942 9.4 22 18.1 101440 69
2005-05-27 07:48:52 51°10.719 2°35.958 9.4 21 18.2 101440 69
2005-05-27 07:48:58 51°10.734 2°35.977 9.2 22 18.2 101440 69
2005-05-27 07:49:02 51°10.744 2°35.992 9.4 19 18.2 101440 69
2005-05-27 07:49:08 51°10.758 2°36.015 9.5 21 18.2 101440 69
2005-05-27 07:49:13 51°10.77 2°36.034 9.6 20 18.2 101430 69
2005-05-27 07:49:16 51°10.779 2°36.047 9.8 21 18.2 101430 69
2005-05-27 07:49:22 51°10.793 2°36.069 9.7 20 18.2 101440 69
2005-05-27 07:49:28 51°10.808 2°36.092 9.3 22 18.2 101440 69
2005-05-27 07:49:33 51°10.82 2°36.112 9.6 21 18.2 101430 69
2005-05-27 07:49:38 51°10.833 2°36.131 9.7 20 18.2 101430 69
2005-05-27 07:49:43 51°10.845 2°36.15 9.6 22 18.3 101430 69
2005-05-27 07:49:48 51°10.858 2°36.17 9.7 21 18.3 101430 69
2005-05-27 07:49:53 51°10.87 2°36.189 9.6 22 18.3 101430 69
2005-05-27 07:49:58 51°10.882 2°36.208 9.6 20 18.3 101430 69
2005-05-27 07:50:02 51°10.892 2°36.224 9.5 22 18.3 101440 69
2005-05-27 07:50:08 51°10.907 2°36.247 9.6 21 18.3 101440 69
2005-05-27 07:50:12 51°10.918 2°36.264 9.5 22 18.3 101430 69
2005-05-27 07:50:18 51°10.932 2°36.286 9.7 21 18.3 101430 69
2005-05-27 07:50:23 51°10.944 2°36.306 9.5 22 18.3 101430 69
2005-05-27 07:50:28 51°10.957 2°36.325 9.6 22 18.3 101430 69
2005-05-27 07:50:32 51°10.968 2°36.342 9.7 21 18.4 101440 69
2005-05-27 07:50:38 51°10.981 2°36.363 9.5 22 18.4 101440 69
2005-05-27 07:50:43 51°10.994 2°36.382 9.7 22 18.4 101430 69
2005-05-27 07:50:48 51°11.006 2°36.401 9.5 22 18.4 101430 69
2005-05-27 07:50:52 51°11.018 2°36.419 9.4 22 18.4 101430 69
2005-05-27 07:50:58 51°11.031 2°36.439 9.4 22 18.4 101430 69
2005-05-27 07:51:03 51°11.044 2°36.458 9.4 23 18.4 101430 69
2005-05-27 07:51:08 51°11.057 2°36.477 9.8 23 18.4 101430 69
2005-05-27 07:51:12 51°11.068 2°36.494 9.7 23 18.4 101430 69
2005-05-27 07:51:18 51°11.082 2°36.515 9.7 21 18.4 101430 69
2005-05-27 07:51:22 51°11.093 2°36.532 10 22 18.4 101430 69
2005-05-27 07:51:28 51°11.107 2°36.553 9.4 22 18.4 101430 69
2005-05-27 07:51:32 51°11.118 2°36.57 9.5 23 18.4 101430 69
2005-05-27 07:51:38 51°11.132 2°36.591 9.6 23 18.4 101430 69
2005-05-27 07:51:43 51°11.145 2°36.609 9.5 22 18.4 101430 69
2005-05-27 07:51:48 51°11.157 2°36.629 9.4 23 18.4 101430 69
2005-05-27 07:51:52 51°11.169 2°36.646 9.4 23 18.4 101430 69
2005-05-27 07:51:58 51°11.182 2°36.666 9.5 24 18.4 101430 69
2005-05-27 07:52:03 51°11.195 2°36.685 9.5 23 18.5 101430 69
2005-05-27 07:52:07 51°11.206 2°36.702 9.5 23 18.5 101430 69
2005-05-27 07:52:12 51°11.219 2°36.721 9.6 23 18.5 101430 69
2005-05-27 07:52:18 51°11.233 2°36.742 9.6 23 18.5 101430 69
2005-05-27 07:52:22 51°11.243 2°36.758 9.7 24 18.5 101440 69
2005-05-27 07:52:28 51°11.257 2°36.781 9.6 24 18.5 101440 69
2005-05-27 07:52:32 51°11.269 2°36.798 9.3 25 18.5 101430 69
2005-05-27 07:52:38 51°11.283 2°36.818 9.4 25 18.5 101430 69
2005-05-27 07:52:42 51°11.293 2°36.833 9.5 25 18.5 101430 69
2005-05-27 07:52:48 51°11.308 2°36.856 9.3 25 18.5 101430 69
2005-05-27 07:52:52 51°11.319 2°36.873 9.2 25 18.5 101440 69
2005-05-27 07:52:58 51°11.333 2°36.894 9.2 24 18.5 101440 69
2005-05-27 07:53:03 51°11.346 2°36.913 9.4 24 18.5 101440 69
2005-05-27 07:53:08 51°11.358 2°36.932 9.2 23 18.5 101440 69
2005-05-27 07:53:12 51°11.369 2°36.949 9.4 24 18.5 101440 69
2005-05-27 07:53:18 51°11.383 2°36.97 9.4 24 18.5 101440 69
2005-05-27 07:53:22 51°11.393 2°36.985 9.3 23 18.5 101440 69
2005-05-27 07:53:28 51°11.408 2°37.007 9.4 23 18.5 101440 69
2005-05-27 07:53:33 51°11.421 2°37.026 9.3 24 18.5 101440 69
2005-05-27 07:53:38 51°11.434 2°37.045 9.2 24 18.5 101440 69
2005-05-27 07:53:42 51°11.444 2°37.061 9.3 24 18.5 101440 69
2005-05-27 07:53:48 51°11.459 2°37.083 9.3 24 18.5 101440 69
2005-05-27 07:53:52 51°11.47 2°37.1 9.3 23 18.5 101430 69
2005-05-27 07:53:58 51°11.484 2°37.121 9.3 23 18.5 101430 69
2005-05-27 07:54:02 51°11.494 2°37.136 9.1 25 18.5 101440 69
2005-05-27 07:54:08 51°11.51 2°37.157 9.2 25 18.5 101440 69
2005-05-27 07:54:12 51°11.522 2°37.173 9.1 24 18.5 101440 69
2005-05-27 07:54:18 51°11.537 2°37.192 9.4 25 18.5 101440 69
2005-05-27 07:54:23 51°11.551 2°37.209 9.2 23 18.5 101440 69
2005-05-27 07:54:28 51°11.564 2°37.227 9.4 25 18.5 101440 69
2005-05-27 07:54:32 51°11.576 2°37.242 9.3 24 18.5 101440 69
2005-05-27 07:54:38 51°11.591 2°37.262 9.2 25 18.5 101440 69
2005-05-27 07:54:42 51°11.602 2°37.275 9.2 24 18.5 101440 69
2005-05-27 07:54:48 51°11.619 2°37.295 9.1 25 18.5 101440 69
2005-05-27 07:54:52 51°11.631 2°37.309 9.4 25 18.5 101440 68
2005-05-27 07:54:58 51°11.647 2°37.327 9.3 26 18.5 101440 68
2005-05-27 07:55:03 51°11.661 2°37.343 9.1 25 18.5 101440 68
2005-05-27 07:55:08 51°11.676 2°37.359 9.1 25 18.5 101440 68
2005-05-27 07:55:12 51°11.688 2°37.373 9.2 25 18.4 101440 68
2005-05-27 07:55:18 51°11.705 2°37.39 9.3 24 18.4 101440 68
2005-05-27 07:55:22 51°11.718 2°37.404 9.5 24 18.4 101440 68
2005-05-27 07:55:28 51°11.733 2°37.421 9.4 22 18.4 101440 68
2005-05-27 07:55:32 51°11.746 2°37.435 9.2 23 18.4 101440 68
2005-05-27 07:55:38 51°11.761 2°37.452 9.7 23 18.4 101440 68
2005-05-27 07:55:42 51°11.774 2°37.467 9.1 20 18.3 101440 69
2005-05-27 07:55:48 51°11.79 2°37.484 9 19 18.3 101440 69
2005-05-27 07:55:52 51°11.802 2°37.499 9.4 22 18.3 101440 69
2005-05-27 07:55:58 51°11.818 2°37.516 9.5 21 18.3 101440 69
2005-05-27 07:56:03 51°11.832 2°37.532 9.8 21 18.2 101440 68
2005-05-27 07:56:08 51°11.846 2°37.548 10.1 21 18.2 101440 68
2005-05-27 07:56:13 51°11.861 2°37.564 9.9 23 18.1 101440 69
2005-05-27 07:56:18 51°11.875 2°37.58 10 23 18.1 101440 69
2005-05-27 07:56:22 51°11.888 2°37.594 9.9 22 18.1 101440 69
2005-05-27 07:56:28 51°11.903 2°37.611 9.9 21 18.1 101440 69
2005-05-27 07:56:32 51°11.916 2°37.625 9.7 21 17.9 101440 69
2005-05-27 07:56:38 51°11.931 2°37.642 9.5 22 17.9 101440 69
2005-05-27 07:56:42 51°11.942 2°37.654 9.5 21 17.9 101440 70
2005-05-27 07:56:48 51°11.959 2°37.672 9.6 21 17.9 101440 70
2005-05-27 07:56:52 51°11.972 2°37.686 9.5 20 17.8 101440 70
2005-05-27 07:56:58 51°11.987 2°37.703 9.8 22 17.8 101440 70
2005-05-27 07:57:03 51°12.001 2°37.719 9.9 21 17.7 101440 71
2005-05-27 07:57:08 51°12.015 2°37.734 9.5 20 17.7 101440 71
2005-05-27 07:57:12 51°12.027 2°37.748 9.9 23 17.7 101440 71
2005-05-27 07:57:18 51°12.043 2°37.765 9.7 20 17.7 101440 71
2005-05-27 07:57:22 51°12.054 2°37.777 9.9 22 17.7 101440 71
2005-05-27 07:57:28 51°12.071 2°37.795 9.8 24 17.7 101440 71
2005-05-27 07:57:32 51°12.085 2°37.808 9.7 24 17.6 101440 72
2005-05-27 07:57:38 51°12.101 2°37.824 9.4 24 17.6 101440 72
2005-05-27 07:57:42 51°12.114 2°37.834 9.5 23 17.6 101440 72
2005-05-27 07:57:48 51°12.132 2°37.85 9.4 23 17.6 101440 72
2005-05-27 07:57:52 51°12.146 2°37.861 9.3 23 17.6 101440 72
2005-05-27 07:57:56 51°12.158 2°37.871 9.5 23 17.6 101440 72
2005-05-27 07:58:03 51°12.178 2°37.887 9.7 22 17.6 101440 72
2005-05-27 07:58:08 51°12.194 2°37.899 9.5 22 17.6 101440 72
2005-05-27 07:58:13 51°12.209 2°37.912 9.6 23 17.5 101440 72
2005-05-27 07:58:17 51°12.223 2°37.923 9.5 23 17.5 101440 72
2005-05-27 07:58:23 51°12.24 2°37.936 9.5 23 17.5 101440 72
2005-05-27 07:58:28 51°12.255 2°37.949 9.5 26 17.5 101440 72
2005-05-27 07:58:32 51°12.269 2°37.96 9.5 24 17.5 101440 72
2005-05-27 07:58:38 51°12.286 2°37.973 9.7 24 17.5 101440 72
2005-05-27 07:58:42 51°12.3 2°37.984 9.4 23 17.5 101440 73
2005-05-27 07:58:48 51°12.317 2°37.997 9.3 23 17.5 101440 73
2005-05-27 07:58:52 51°12.331 2°38.008 9.8 24 17.4 101440 73
2005-05-27 07:58:58 51°12.348 2°38.022 9.5 22 17.4 101440 73
2005-05-27 07:59:03 51°12.363 2°38.035 9.8 25 17.4 101430 73
2005-05-27 07:59:08 51°12.378 2°38.047 9.7 25 17.4 101430 73
2005-05-27 07:59:12 51°12.392 2°38.058 9.8 27 17.4 101430 73
2005-05-27 07:59:18 51°12.409 2°38.072 9.7 27 17.4 101430 73
2005-05-27 07:59:23 51°12.425 2°38.084 9.8 27 17.3 101440 73
2005-05-27 07:59:28 51°12.44 2°38.096 9.6 26 17.3 101440 73
2005-05-27 07:59:32 51°12.454 2°38.107 9.8 26 17.3 101440 73
2005-05-27 07:59:38 51°12.471 2°38.121 9.7 26 17.3 101440 73
2005-05-27 07:59:42 51°12.483 2°38.131 9.7 26 17.4 101440 73
2005-05-27 07:59:48 51°12.503 2°38.148 9.7 26 17.4 101440 73
2005-05-27 07:59:53 51°12.517 2°38.159 9.8 26 17.3 101440 74
2005-05-27 07:59:58 51°12.532 2°38.171 10.2 25 17.3 101440 74
2005-05-27 08:00:03 51°12.548 2°38.183 10 25 17.3 101430 74
2005-05-27 08:00:08 51°12.563 2°38.195 10 25 17.3 101430 74
2005-05-27 08:00:12 51°12.577 2°38.207 10.1 25 17.3 101430 74
2005-05-27 08:00:18 51°12.594 2°38.22 10.2 25 17.3 101430 74
2005-05-27 08:00:22 51°12.606 2°38.23 9.8 25 17.3 101430 74
2005-05-27 08:00:28 51°12.626 2°38.245 10 25 17.3 101430 74
2005-05-27 08:00:33 51°12.64 2°38.256 10.1 25 17.3 101430 74
2005-05-27 08:00:38 51°12.656 2°38.268 9.8 26 17.3 101430 74
2005-05-27 08:00:43 51°12.671 2°38.28 9.7 26 17.2 101430 74
2005-05-27 08:00:48 51°12.687 2°38.293 9.9 26 17.2 101430 74
2005-05-27 08:00:52 51°12.701 2°38.304 9.7 25 17.2 101440 74
2005-05-27 08:00:58 51°12.718 2°38.317 9.8 25 17.2 101440 74
2005-05-27 08:01:02 51°12.73 2°38.327 9.9 25 17.2 101430 74
2005-05-27 08:01:08 51°12.748 2°38.342 9.7 25 17.2 101430 74
2005-05-27 08:01:12 51°12.762 2°38.353 9.9 25 17.2 101430 74
2005-05-27 08:01:18 51°12.779 2°38.367 10.1 26 17.2 101430 74
2005-05-27 08:01:22 51°12.792 2°38.377 10 25 17.2 101440 74
2005-05-27 08:01:28 51°12.81 2°38.391 9.9 28 17.2 101440 74
2005-05-27 08:01:32 51°12.824 2°38.403 9.8 26 17.2 101430 74
2005-05-27 08:01:38 51°12.842 2°38.416 9.9 28 17.2 101430 74
2005-05-27 08:01:43 51°12.857 2°38.428 10.1 25 17.2 101430 74
2005-05-27 08:01:48 51°12.873 2°38.441 9.9 26 17.2 101430 74
2005-05-27 08:01:52 51°12.887 2°38.451 10 27 17.2 101430 75
2005-05-27 08:01:58 51°12.904 2°38.464 9.9 28 17.2 101430 75